Weather History for Jackson, KY

Change the Weather History Date:

Saturday, December 10, 2011

  Actual Average Record
Temperature  
Mean Temperature 33 °F 39 °F  
Max Temperature 39 °F 47 °F 64 °F (1985)
Min Temperature 26 °F 31 °F 3 °F (1995)
Degree Days  
Heating Degree Days 32 26  
Month to date heating degree days 214 242  
Since 1 July heating degree days 931 1042  
Cooling Degree Days 0 0  
Month to date cooling degree days 0 0  
Year to date cooling degree days 1255 1154  
Moisture  
Dew Point 19 °F    
Average Humidity 59    
Maximum Humidity 82    
Minimum Humidity 35    
Precipitation  
Precipitation T in 0.15 in 1.43 in (1994)
Month to date precipitation 1.52 1.42  
Year to date precipitation 57.35 45.58  
Snow  
Snow T in 0.20 in - ()
Month to date snowfall 0.3 1.1  
Since 1 July snowfall 0.3 1.7  
Snow Depth 0.00 in    
Sea Level Pressure  
Sea Level Pressure 30.47 in    
Wind  
Wind Speed 2 mph (NNW)    
Max Wind Speed 10 mph    
Max Gust Speed 14 mph    
Visibility 10 miles    
Events      
T = Trace of Precipitation, MM = Missing Value Source: NWS Daily Summary

Daily Weather History Graph

Daily Weather History Graph

Search for Another Location

Airport:

Trip Planner

Search our weather history database for the weather conditions in past years. The results will help you decide how hot, cold, wet, or windy it might be!

Date:

Astronomy

Dec. 10, 2011 Rise Set
Actual Time 7:37 AM EST 5:14 PM EST
Civil Twilight 7:07 AM EST 5:44 PM EST
Nautical Twilight 6:35 AM EST 6:16 PM EST
Astronomical Twilight 6:03 AM EST 6:48 PM EST
Moon 5:28 PM EST (12/10) 7:35 AM EST (12/10)
Length of Visible Light 10h 36m
Length of Day
9h 37m
Full, 100% of the Moon is Illuminated
Dec 10
Full
Dec 17
Last Quarter
Dec 24
New
Jan 1
First Quarter
Jan 9
Full

Hourly Weather History & Observations

Time (EST) Temp. Windchill Dew Point Humidity Pressure Visibility Wind Dir Wind Speed Gust Speed Precip Events Conditions
12:53 AM 34.0 °F 29.8 °F 28.0 °F 79% 30.35 in 10.0 mi Variable 4.6 mph - N/A   Clear
1:53 AM 33.1 °F 30.0 °F 28.0 °F 82% 30.35 in 10.0 mi Variable 3.5 mph - N/A   Overcast
2:50 AM 33.8 °F 30.8 °F 28.4 °F 81% 30.35 in 10.0 mi Variable 3.5 mph - N/A   Overcast
2:53 AM 33.8 °F 30.8 °F 28.4 °F 81% 30.35 in 10.0 mi North 3.5 mph - N/A   Overcast
3:53 AM 33.1 °F 26.9 °F 28.0 °F 82% 30.38 in 10.0 mi NW 6.9 mph - N/A   Overcast
4:53 AM 32.0 °F 26.4 °F 25.0 °F 75% 30.41 in 10.0 mi North 5.8 mph - N/A   Overcast
5:10 AM 30.2 °F 25.4 °F 24.8 °F 80% 30.39 in 10.0 mi Variable 4.6 mph - N/A   Overcast
5:53 AM 30.0 °F - 24.1 °F 79% 30.43 in 10.0 mi Calm Calm - N/A   Mostly Cloudy
6:22 AM 28.4 °F 24.6 °F 23.0 °F 80% 30.42 in 10.0 mi Variable 3.5 mph - N/A   Scattered Clouds
6:53 AM 28.4 °F 23.3 °F 23.0 °F 80% 30.43 in 10.0 mi Variable 4.6 mph - N/A   Clear
7:53 AM 28.0 °F 22.8 °F 23.0 °F 81% 30.50 in 9.0 mi NNW 4.6 mph - N/A   Mostly Cloudy
8:30 AM 26.6 °F - 21.2 °F 80% 30.48 in 10.0 mi Calm Calm - N/A   Scattered Clouds
8:53 AM 28.0 °F 24.2 °F 21.0 °F 75% 30.51 in 10.0 mi NNE 3.5 mph - N/A   Clear
9:53 AM 30.0 °F 26.5 °F 19.9 °F 66% 30.53 in 10.0 mi NNW 3.5 mph - N/A   Clear
10:53 AM 32.0 °F - 16.0 °F 52% 30.53 in 10.0 mi Calm Calm - N/A   Clear
11:53 AM 34.0 °F - 14.0 °F 44% 30.52 in 10.0 mi Calm Calm - N/A   Clear
12:53 PM 36.0 °F - 16.0 °F 44% 30.50 in 10.0 mi Calm Calm - N/A   Clear
1:53 PM 37.0 °F 34.5 °F 14.0 °F 39% 30.50 in 10.0 mi Variable 3.5 mph - N/A   Clear
2:53 PM 37.9 °F - 15.1 °F 39% 30.47 in 10.0 mi Calm Calm - N/A   Clear
3:53 PM 37.0 °F 34.5 °F 12.9 °F 37% 30.48 in 10.0 mi Variable 3.5 mph - N/A   Clear
4:53 PM 33.8 °F 28.6 °F 12.2 °F 41% 30.46 in 10.0 mi NW 5.8 mph - N/A   Clear
5:53 PM 32.0 °F - 12.0 °F 44% 30.51 in 10.0 mi Calm Calm - N/A   Clear
6:53 PM 30.9 °F - 12.0 °F 46% 30.51 in 10.0 mi Calm Calm - N/A   Clear
7:53 PM 28.9 °F 25.2 °F 12.9 °F 51% 30.53 in 10.0 mi NNE 3.5 mph - N/A   Clear
8:53 PM 28.0 °F - 12.0 °F 51% 30.53 in 10.0 mi Calm Calm - N/A   Clear
9:53 PM 28.0 °F - 10.9 °F 49% 30.54 in 10.0 mi Calm Calm - N/A   Clear
10:53 PM 27.0 °F - 12.0 °F 53% 30.54 in 10.0 mi Calm Calm - N/A   Clear
11:53 PM 26.1 °F - 12.0 °F 55% 30.53 in 10.0 mi Calm Calm - N/A   Clear